Location: Unspecified
(0.0000°N, 0.0000°E)
Time: 14:54:14
(UTC+00:00)

NTS 1 - Pass Details

Date: 18 June 2023
Orbit: 13478 x 13741 km, 124.8° (Epoch: 26 September)

Event Time Altitude Azimuth Distance (km) Brightness Sun altitude
Rises 01:45:28 0° 39° (NE) 18,975 ? -55.5°
Reaches altitude 10° 01:56:09 10° 40° (NE) 17,914 ? -53.6°
Maximum altitude 03:02:44 83° 318° (NW) 13,767 ? -40.1°
Enters shadow 03:50:46 30° 231° (SW) 16,180 ? -29.6°
Exits shadow 04:19:51 - 225° (SW) 18,931 ? -23.1°
Sets 04:21:02 0° 225° (SW) 19,047 ? -22.8°
